Location: �A�n Sefra
(34.9681°N, 0.4346°E)
Time: 03:35:29
(UTC+00:00)

Cosmos 1833 Rocket - Pass Details

Date: 21 October 2019
Orbit: 833 x 839 km, 71.0° (Epoch: 18 November)

Event Time Altitude Azimuth Distance (km) Brightness Sun altitude
Rises 19:12:29 0° 331° (NNW) 3,387 6.3 -24.5°
Reaches altitude 10° 19:15:01 10° 325° (NW) 2,450 5.6 -25.0°
Maximum altitude 19:20:20 45° 255° (WSW) 1,126 3.7 -26.1°
Drops below altitude 10° 19:25:37 10° 183° (S) 2,440 5.1 -27.1°
Enters shadow 19:27:38 - 178° (S) 3,180 5.6 -27.6°
